Regional Weather Roundup
Issued by NWS

Home | Current Version | Previous Version | Graphics & Text | Print | Product List | Glossary On
Versions: 1 2 3 4 5 6 7 8 9 10 11 12 13 14 15 16 17 18 19 20 21 22 23 24 25 26 27 28 29 30 31 32 33 34 35 36 37 38 39 40 41 42 43 44 45 46 47 48 49 50
051
ASUS43 KFSD 251610
RWRSD

WEATHER ROUNDUP FOR SOUTH DAKOTA
NATIONAL WEATHER SERVICE SIOUX FALLS SD
1100 AM CDT TUE JUL 25 2017

NOTE: "FAIR" INDICATES FEW OR NO CLOUDS BELOW 12,000 FEET WITH NO
SIGNIFICANT WEATHER AND/OR OBSTRUCTIONS TO VISIBILITY.


SDZ001>005-009-010-012>017-251700-
NORTHWEST AND NORTH CENTRAL SOUTH DAKOTA

CITY           SKY/WX    TMP DP  RH WIND       PRES   REMARKS
BUFFALO          N/A     76  54  46 NE26G35   29.95R
FAITH            N/A     83  64  52 NE12      29.93R
MOBRIDGE       MOSUNNY   78  67  68 NE15G23   29.85F
$$

SDZ012>016-024>037-041>051-057-063-072>074-251700-
SOUTHWEST AND SOUTH CENTRAL SOUTH DAKOTA

CITY           SKY/WX    TMP DP  RH WIND       PRES   REMARKS
RAPID CTY ARPT CLOUDY    83  56  39 NE12      29.97R
PIERRE         MOSUNNY   87  65  47 NE12G21   29.87R
CUSTER         CLOUDY    73  52  47 E22       30.12R
ELLSWORTH AFB  CLOUDY    82  55  38 N9        29.97R
PHILIP         MOSUNNY   88  61  40 E22G31    29.90R
PINE RIDGE     CLOUDY    86  63  45 N3        29.95R
SPEARFISH      FAIR      82  54  36 E8G15     30.05R
WINNER         FAIR      91  64  40 S10       29.88S
$$

SDZ004>011-016>023-039-040-251700-
NORTHEAST SOUTH DAKOTA

CITY           SKY/WX    TMP DP  RH WIND       PRES   REMARKS
ABERDEEN       MOSUNNY   78  70  76 NE13      29.89R
WATERTOWN      MOSUNNY   80  70  71 S9        29.88F
BROOKINGS      SUNNY     82  71  69 S13       29.90F
SISSETON         N/A     77  70  79 NE6       29.87R
$$

SDZ017-020-022-023-036>040-048>070-251700-
SOUTHEAST SOUTH DAKOTA

CITY           SKY/WX    TMP DP  RH WIND       PRES   REMARKS
SIOUX FALLS    PTSUNNY   82  72  71 SW12      29.92R
HURON          SUNNY     85  68  56 SW3       29.85R
CHAMBERLAIN    SUNNY     91  66  43 SW7       29.86S
MITCHELL       SUNNY     90  67  46 S12       29.86F
YANKTON        SUNNY     92  69  47 S15G24    29.90S HX  97
$$

ABBREVIATIONS USED IN REMARKS
   TC - TEMPERATURE IN CELSIUS
  WCI - WIND CHILL INDEX
   HX - HEAT INDEX
  VSB - VISIBILITY





USA.gov is the U.S. government's official web portal to all federal, state and local government web resources and services.